White Plains, CT

11:44 AM EST on December 12, 2019 (GMT -0500)
Westchester County

Weather History for KHPN - November, 2019

Change the Weather History Date:

Thursday, November 14, 2019

  Actual Average Record
Temperature  
Mean Temperature 31 °F -  
Max Temperature 41 °F 48 °F 71 °F (1993)
Min Temperature 21 °F 34 °F 20 °F (1986)
Degree Days  
Heating Degree Days 34    
Moisture  
Dew Point 17 °F    
Average Humidity 52    
Maximum Humidity 63    
Minimum Humidity 43    
Precipitation  
Precipitation 0.00 in - - ()
Sea Level Pressure  
Sea Level Pressure 30.38 in    
Wind  
Wind Speed 3 mph ()    
Max Wind Speed 9 mph    
Max Gust Speed -    
Visibility 10.0 miles    
Events      
Averages and records for this station are not official NWS values.
T = Trace of Precipitation, MM = Missing Value Source: Averaged Metar Reports

Daily Weather History Graph

Daily Weather History Graph

Search for Another Location

Airport or City:

Astronomy

Nov. 14, 2019 Rise Set
Actual Time 6:40 AM EST 4:37 PM EST
Civil Twilight 6:11 AM EST 5:06 PM EST
Nautical Twilight 5:38 AM EST 5:39 PM EST
Astronomical Twilight 5:05 AM EST 6:12 PM EST
Moon 6:20 PM EST (11/14) 8:34 AM EST (11/14)
Length of Visible Light 10h 54m
Length of Day
9h 56m
Waning Gibbous, 95% of the Moon is Illuminated
Nov 14
Waning Gibbous
Nov 19
Last Quarter
Nov 26
New
Dec 4
First Quarter
Dec 12
Full

Hourly Weather History & Observations

Time (EST) Temp. Windchill Dew Point Humidity Pressure Visibility Wind Dir Wind Speed Gust Speed Precip Events Conditions
12:56 AM 23.0 °F - 6.1 °F 48% 30.46 in 10.0 mi Calm Calm - N/A   Clear
1:56 AM 21.9 °F 14.5 °F 6.1 °F 51% 30.46 in 10.0 mi ENE 5.8 mph - N/A   Clear
2:56 AM 21.0 °F 14.6 °F 6.1 °F 53% 30.44 in 10.0 mi ENE 4.6 mph - N/A   Clear
3:56 AM 21.0 °F 13.4 °F 6.1 °F 53% 30.44 in 10.0 mi ENE 5.8 mph - N/A   Clear
4:56 AM 21.0 °F 16.2 °F 6.1 °F 53% 30.44 in 10.0 mi ENE 3.5 mph - N/A   Clear
5:56 AM 21.9 °F 17.2 °F 8.1 °F 55% 30.43 in 10.0 mi NE 3.5 mph - N/A   Clear
6:56 AM 23.0 °F - 12.0 °F 63% 30.45 in 10.0 mi Calm Calm - N/A   Clear
7:56 AM 25.0 °F 18.1 °F 14.0 °F 63% 30.47 in 10.0 mi NW 5.8 mph - N/A   Clear
8:56 AM 30.0 °F 26.5 °F 17.1 °F 59% 30.47 in 10.0 mi NW 3.5 mph - N/A   Clear
9:56 AM 33.1 °F - 19.9 °F 59% 30.45 in 10.0 mi Calm Calm - N/A   Clear
10:56 AM 35.1 °F 30.1 °F 17.1 °F 48% 30.43 in 10.0 mi South 5.8 mph - N/A   Clear
11:56 AM 37.0 °F 31.0 °F 18.0 °F 46% 30.40 in 10.0 mi South 8.1 mph - N/A   Partly Cloudy
12:56 PM 39.0 °F 35.7 °F 19.9 °F 46% 30.38 in 10.0 mi South 4.6 mph - N/A   Partly Cloudy
1:56 PM 41.0 °F 35.2 °F 21.0 °F 45% 30.35 in 10.0 mi South 9.2 mph - N/A   Partly Cloudy
2:56 PM 41.0 °F 36.4 °F 19.9 °F 43% 30.34 in 10.0 mi South 6.9 mph - N/A   Partly Cloudy
3:56 PM 39.9 °F 37.8 °F 21.0 °F 47% 30.34 in 10.0 mi South 3.5 mph - N/A   Mostly Cloudy
4:56 PM 37.9 °F - 21.9 °F 53% 30.32 in 10.0 mi Calm Calm - N/A   Mostly Cloudy
5:56 PM 37.0 °F - 23.0 °F 57% 30.32 in 10.0 mi Calm Calm - N/A   Clear
6:56 PM 39.9 °F 37.8 °F 21.9 °F 49% 30.32 in 10.0 mi West 3.5 mph - N/A   Clear
7:56 PM 39.9 °F 37.8 °F 21.9 °F 49% 30.30 in 10.0 mi West 3.5 mph - N/A   Clear
8:56 PM 41.0 °F - 23.0 °F 49% 30.30 in 10.0 mi Calm Calm - N/A   Clear
9:56 PM 39.0 °F 36.8 °F 23.0 °F 53% 30.30 in 10.0 mi West 3.5 mph - N/A   Mostly Cloudy
10:56 PM 39.0 °F 35.7 °F 21.9 °F 50% 30.29 in 10.0 mi West 4.6 mph - N/A   Scattered Clouds
11:56 PM 37.9 °F 35.5 °F 21.0 °F 51% 30.29 in 10.0 mi West 3.5 mph - N/A   Clear